Weather History for KRTN - February, 2013

Change the Weather History Date:

Wednesday, February 13, 2013

  Actual Average (KTAD) Record (KTAD)
Temperature  
Mean Temperature 28 °F 34 °F  
Max Temperature 48 °F 49 °F - ()
Min Temperature 8 °F 19 °F - ()
Degree Days  
Heating Degree Days 37 31  
Month to date heating degree days 410  
Since 1 July heating degree days 3692  
Cooling Degree Days 0 0  
Month to date cooling degree days 0  
Year to date cooling degree days 0  
Moisture  
Dew Point 5 °F    
Average Humidity 44    
Maximum Humidity 70    
Minimum Humidity 19    
Precipitation  
Precipitation 0.00 in 0.02 in - ()
Month to date precipitation 0.21  
Year to date precipitation 0.61  
Sea Level Pressure  
Sea Level Pressure 30.03 in    
Wind  
Wind Speed 6 mph (NE)    
Max Wind Speed 9 mph    
Max Gust Speed 17 mph    
Visibility 10 miles    
Events      
T = Trace of Precipitation, MM = Missing Value Source: NWS Daily Summary

Daily Weather History Graph

Daily Weather History Graph

Search for Another Location

Airport or City:

Trip Planner

Search our weather history database for the weather conditions in past years. The results will help you decide how hot, cold, wet, or windy it might be!

Date:

Astronomy

Feb. 13, 2013 Rise Set
Actual Time 6:48 AM MST 5:36 PM MST
Civil Twilight 6:21 AM MST 6:03 PM MST
Nautical Twilight 5:51 AM MST 6:33 PM MST
Astronomical Twilight 5:21 AM MST 7:03 PM MST
Moon 8:26 AM MST (2/13) 9:33 PM MST (2/13)
Length of Visible Light 11h 41m
Length of Day
10h 48m
Waxing Crescent, 14% of the Moon is Illuminated
Feb 13
Waxing Crescent
Feb 17
First Quarter
Feb 25
Full
Mar 4
Last Quarter
Mar 11
New

Hourly Weather History & Observations

Time (MST) Temp. Windchill Dew Point Humidity Pressure Visibility Wind Dir Wind Speed Gust Speed Precip Events Conditions
12:53 AM 12.9 °F 3.8 °F 1.9 °F 62% 30.08 in 10.0 mi NE 5.8 mph - N/A   Clear
1:53 AM 10.9 °F 1.4 °F 1.0 °F 64% 30.08 in 10.0 mi ENE 5.8 mph - N/A   Clear
2:53 AM 10.9 °F - 1.0 °F 64% 30.06 in 10.0 mi Calm Calm - N/A   Clear
3:53 AM 9.0 °F -2.2 °F 1.0 °F 70% 30.06 in 10.0 mi NE 6.9 mph - N/A   Clear
4:53 AM 8.1 °F -4.3 °F -0.0 °F 70% 30.08 in 10.0 mi East 8.1 mph - N/A   Clear
5:53 AM 10.0 °F 1.8 °F 1.0 °F 67% 30.11 in 10.0 mi NE 4.6 mph - N/A   Clear
6:53 AM 10.0 °F -0.9 °F 1.9 °F 70% 30.13 in 10.0 mi NNE 6.9 mph - N/A   Clear
7:53 AM 16.0 °F 6.3 °F 3.9 °F 59% 30.11 in 10.0 mi ENE 6.9 mph - N/A   Clear
8:53 AM 26.1 °F 16.8 °F 6.1 °F 43% 30.09 in 10.0 mi ENE 9.2 mph - N/A   Clear
9:53 AM 34.0 °F 28.8 °F 5.0 °F 30% 30.05 in 10.0 mi ENE 5.8 mph - N/A   Clear
10:53 AM 39.9 °F - 3.9 °F 22% 30.03 in 10.0 mi Calm Calm - N/A   Clear
11:53 AM 44.1 °F 39.5 °F 7.0 °F 22% 29.98 in 10.0 mi South 8.1 mph - N/A   Clear
12:53 PM 46.0 °F 41.4 °F 7.0 °F 20% 29.94 in 10.0 mi SSW 9.2 mph 17.3 mph N/A   Clear
1:53 PM 48.9 °F - 8.1 °F 19% 29.92 in 10.0 mi SSW 8.1 mph - N/A   Clear
2:53 PM 46.9 °F - 7.0 °F 20% 29.91 in 10.0 mi SSE 6.9 mph - N/A   Clear
3:53 PM 46.9 °F - 8.1 °F 21% 29.94 in 10.0 mi SSW 5.8 mph - N/A   Clear
4:53 PM 43.0 °F 40.3 °F 8.1 °F 24% 29.98 in 10.0 mi SW 4.6 mph - N/A   Clear
5:53 PM 35.1 °F 31.0 °F 7.0 °F 31% 30.03 in 10.0 mi West 4.6 mph - N/A   Clear
6:53 PM 32.0 °F 25.6 °F 9.0 °F 38% 30.06 in 10.0 mi NNW 6.9 mph - N/A   Clear
7:53 PM 36.0 °F - 8.1 °F 31% 30.03 in 10.0 mi Calm Calm - N/A   Clear
8:53 PM 26.1 °F 20.5 °F 7.0 °F 44% 30.05 in 10.0 mi NNE 4.6 mph - N/A   Clear
9:53 PM 26.1 °F 19.4 °F 8.1 °F 47% 30.02 in 10.0 mi NW 5.8 mph - N/A   Clear
10:53 PM 21.0 °F 16.2 °F 7.0 °F 55% 30.02 in 10.0 mi North 3.5 mph - N/A   Clear
11:53 PM 23.0 °F 15.8 °F 9.0 °F 55% 30.01 in 10.0 mi ENE 5.8 mph - N/A   Clear